Regional Weather Roundup
Issued by NWS Northern Indiana

Home | Current Version | Previous Version | Graphics & Text | Print | Product List | Glossary On
Versions: 1 2 3 4 5 6 7 8 9 10 11 12 13 14 15 16 17 18 19 20 21 22 23 24 25 26 27 28 29 30 31 32 33 34 35 36 37 38 39 40 41 42 43 44 45 46 47 48 49 50
706
ASUS43 KIWX 242110
RWRIWX

KIWX WEATHER ROUNDUP
NATIONAL WEATHER SERVICE NORTHERN INDIANA
500 PM EDT SUN SEP 24 2017

NOTE: "FAIR" INDICATES FEW OR NO CLOUDS BELOW 12,000 FEET WITH NO
SIGNIFICANT WEATHER AND/OR OBSTRUCTIONS TO VISIBILITY.

* THESE STATIONS ARE NOT UNDER NWS QUALITY CONTROL. THEY ALSO MAY NOT
  REPORT WEATHER SUCH AS PRECIPITATION OR FOG.

INZ001>027-242200-
NORTHERN INDIANA

CITY           SKY/WX    TMP DP  RH WIND       PRES   REMARKS
GARY*          MOSUNNY   84  61  45 NE10      30.02F
VALPARAISO     SUNNY     92  57  30 SE12      30.03F
MICHIGAN CITY* SUNNY     90  55  31 SE6       30.03F
LAPORTE*       SUNNY     90  57  32 SE8       30.04F
KNOX*          SUNNY     90  54  29 S6        30.03F
SOUTH BEND     SUNNY     89  55  31 S13       30.05F
GOSHEN         SUNNY     90  55  30 SE9       30.05F
MONTICELLO*    SUNNY     90  52  27 CALM      30.01F
LOGANSPORT*    SUNNY     90  54  29 SE10      30.04F
WARSAW*        SUNNY     88  57  35 E9        30.05F
AUBURN*        SUNNY     90  52  27 E5        30.07F HAZE
FORT WAYNE     MOSUNNY   88  55  32 SE12      30.06F
HUNTINGTON*    SUNNY     90  46  21 E7        30.04F
PERU/GRISSOM   SUNNY     90  55  29 S7        30.03F
MARION*        SUNNY     90  52  27 S10       30.04F

$$
INZ028>050-242200-
CENTRAL INDIANA

CITY           SKY/WX    TMP DP  RH WIND       PRES   REMARKS
LAFAYETTE      SUNNY     87  56  34 S5        30.00F
KOKOMO*        SUNNY     88  58  36 S7        30.05F
MUNCIE*        SUNNY     90  49  24 SE13      30.05F
INDIANAPOLIS   MOSUNNY   90  54  29 E10       30.03F

$$
MIZ043>046-050>051-056>058-064>065-071>073-077>080-242200-
SOUTHWEST LOWER MICHIGAN

CITY           SKY/WX    TMP DP  RH WIND       PRES   REMARKS
BATTLE CREEK   SUNNY     91  56  30 S8        30.08F
BENTON HARBOR  SUNNY     91  55  29 SE12      30.03F
COLDWATER*     SUNNY     88  53  29 E7        30.08F
HILLSDALE*     PTSUNNY   88  54  31 SE6       30.09F
HOLLAND        SUNNY     89  59  36 VRB6      30.05F
GRAND RAPIDS   MOSUNNY   93  55  27 S13       30.05F
KALAMAZOO      SUNNY     91  53  27 S7        30.06F
STURGIS*       SUNNY     89  58  34 S10G16    30.07F
THREE RIVERS*  FAIR      91  53  27 S8        30.07F

$$
OHZ001>008-015>018-024>025-242200-
NORTHWEST OHIO

CITY           SKY/WX    TMP DP  RH WIND       PRES   REMARKS
WAUSEON*       FAIR      90  57  33 SE9       30.07F
DEFIANCE       SUNNY     90  56  31 S6        30.06F
FINDLAY        SUNNY     91  57  31 E10       30.05F
TOLEDO EXPRESS SUNNY     90  64  42 NE12      30.06F
TOLEDO METCALF SUNNY     86  63  45 NE12      30.08F
LIMA           SUNNY     90  56  31 SE12G17   30.07F

$$
AND FOR LAKE MICHIGAN COASTAL AND OPEN LAKE BUOY OBSERVATIONS

STATION/POSITION TEMP    WIND        PRES    VSBY  WAVE
                 AIR SEA DIR/SP/G                  HT/PER
                 (F)     (DEG/KT/KT) (MB)    (MI)  (FT/S)
CALUMET HARBOR    80      30/  7/  9 1016.0F
MICHIGAN CITY     80     360/ 10/ 10   N/A
BURNS HARBOR      76      20/ 11/ 13 1016.9F
SAINT JOSEPH      80      20/  6/  8 1017.3
SOUTH LAKE BUOY   74 72  150/  4/  4 1017.1F         1
4 MI NW BRIDGMAN  76 74   40/  6/  6 1016.6          0
MICHIGAN CITY     78 74   40/  8/ 10   N/A           1

$$
&&




USA.gov is the U.S. government's official web portal to all federal, state and local government web resources and services.